• In Belgien
  • Länderverzeichnis
  • Für 7 Tage
  • Wassertemperatur
  • Satellitenkarten
  • Wetterkarte
  • Widgets
  • user-avatar
    Anmelden

    Stündliche Wetter Quito

    Heute, 20 August, Sonntag

    Zeit Temperatur Niederschläge Wind Luftdruck Luftfeuchtigkeit
    00:00 +19°C° 0 mm 1 m/S 623 mmHg 26%
    01:00 +16°C° 0 mm 1 m/S 623 mmHg 30%
    02:00 +16°C° 0 mm 1 m/S 623 mmHg 31%
    03:00 +15°C° 0 mm 1 m/S 623 mmHg 32%
    04:00 +15°C° 0 mm 1 m/S 623 mmHg 34%
    05:00 +15°C° 0 mm 1 m/S 623 mmHg 34%
    06:00 +15°C° 0 mm 1 m/S 624 mmHg 34%
    07:00 +18°C° 0 mm 1 m/S 624 mmHg 31%
    08:00 +20°C° 0 mm 2 m/S 625 mmHg 26%
    09:00 +24°C° 0 mm 3 m/S 626 mmHg 21%
    10:00 +28°C° 0 mm 3 m/S 627 mmHg 16%
    11:00 +29°C° 0 mm 3 m/S 627 mmHg 14%
    12:00 +30°C° 0 mm 3 m/S 626 mmHg 12%
    13:00 +31°C° 0 mm 3 m/S 626 mmHg 11%
    14:00 +31°C° 0 mm 2 m/S 626 mmHg 10%
    15:00 +31°C° 0 mm 2 m/S 625 mmHg 10%
    16:00 +31°C° 0 mm 2 m/S 625 mmHg 10%
    17:00 +28°C° 0 mm 2 m/S 624 mmHg 12%
    18:00 +26°C° 0 mm 1 m/S 624 mmHg 14%
    19:00 +23°C° 0 mm 1 m/S 623 mmHg 16%
    20:00 +22°C° 0 mm 1 m/S 623 mmHg 17%
    21:00 +21°C° 0 mm 1 m/S 624 mmHg 17%
    22:00 +20°C° 0 mm 1 m/S 624 mmHg 18%
    23:00 +20°C° 0 mm 1 m/S 624 mmHg 20%

    Morgen, 21 August, Montag

    Zeit Temperatur Niederschläge Wind Luftdruck Luftfeuchtigkeit
    00:00 +19°C° 0 mm 1 m/S 623 mmHg 22%
    01:00 +18°C° 0 mm 1 m/S 623 mmHg 24%
    02:00 +18°C° 0 mm 1 m/S 623 mmHg 26%
    03:00 +16°C° 0 mm 1 m/S 622 mmHg 27%
    04:00 +16°C° 0 mm 2 m/S 622 mmHg 29%
    05:00 +16°C° 0 mm 2 m/S 623 mmHg 30%
    06:00 +16°C° 0 mm 1 m/S 623 mmHg 31%
    07:00 +18°C° 0 mm 1 m/S 623 mmHg 32%
    08:00 +20°C° 0 mm 2 m/S 624 mmHg 28%
    09:00 +24°C° 0 mm 3 m/S 625 mmHg 25%
    10:00 +27°C° 0 mm 4 m/S 626 mmHg 21%
    11:00 +28°C° 0 mm 4 m/S 626 mmHg 19%
    12:00 +30°C° 0 mm 3 m/S 625 mmHg 18%
    13:00 +31°C° 0 mm 3 m/S 625 mmHg 16%
    14:00 +31°C° 0 mm 3 m/S 625 mmHg 15%
    15:00 +31°C° 0 mm 3 m/S 624 mmHg 15%
    16:00 +31°C° 0 mm 2 m/S 624 mmHg 14%
    17:00 +29°C° 0 mm 2 m/S 623 mmHg 17%
    18:00 +26°C° 0 mm 1 m/S 623 mmHg 20%
    19:00 +23°C° 0 mm 1 m/S 622 mmHg 23%
    20:00 +22°C° 0 mm 1 m/S 622 mmHg 24%
    21:00 +21°C° 0 mm 1 m/S 623 mmHg 25%
    22:00 +21°C° 0 mm 1 m/S 623 mmHg 26%
    23:00 +20°C° 0 mm 1 m/S 622 mmHg 27%

    übermorgen, 22 August, Dienstag

    Zeit Temperatur Niederschläge Wind Luftdruck Luftfeuchtigkeit
    00:00 +19°C° 0 mm 1 m/S 622 mmHg 28%
    01:00 +18°C° 0 mm 1 m/S 622 mmHg 30%
    02:00 +18°C° 0 mm 1 m/S 621 mmHg 31%
    03:00 +16°C° 0 mm 1 m/S 621 mmHg 33%
    04:00 +15°C° 0 mm 1 m/S 621 mmHg 35%
    05:00 +16°C° 0 mm 2 m/S 621 mmHg 35%
    06:00 +16°C° 0 mm 2 m/S 622 mmHg 35%
    07:00 +16°C° 0 mm 2 m/S 623 mmHg 36%
    08:00 +20°C° 0 mm 3 m/S 624 mmHg 30%
    09:00 +23°C° 0 mm 4 m/S 625 mmHg 25%
    10:00 +27°C° 0 mm 4 m/S 626 mmHg 20%
    11:00 +29°C° 0 mm 4 m/S 626 mmHg 18%
    12:00 +30°C° 0 mm 3 m/S 625 mmHg 16%
    13:00 +31°C° 0 mm 3 m/S 625 mmHg 13%
    14:00 +31°C° 0 mm 3 m/S 624 mmHg 13%
    15:00 +31°C° 0 mm 3 m/S 624 mmHg 12%
    16:00 +31°C° 0 mm 2 m/S 623 mmHg 12%
    17:00 +28°C° 0 mm 2 m/S 623 mmHg 14%
    18:00 +26°C° 0 mm 1 m/S 622 mmHg 17%
    19:00 +23°C° 0 mm 1 m/S 622 mmHg 19%
    20:00 +22°C° 0 mm 1 m/S 622 mmHg 20%
    21:00 +21°C° 0 mm 1 m/S 622 mmHg 21%
    22:00 +20°C° 0 mm 1 m/S 622 mmHg 21%
    23:00 +20°C° 0 mm 1 m/S 622 mmHg 22%

    23 August, Mittwoch

    Zeit Temperatur Niederschläge Wind Luftdruck Luftfeuchtigkeit
    00:00 +19°C° 0 mm 1 m/S 621 mmHg 23%
    01:00 +18°C° 0 mm 1 m/S 621 mmHg 24%
    02:00 +16°C° 0 mm 1 m/S 620 mmHg 26%
    03:00 +16°C° 0 mm 1 m/S 620 mmHg 27%
    04:00 +15°C° 0 mm 1 m/S 620 mmHg 28%
    05:00 +16°C° 0 mm 1 m/S 621 mmHg 28%
    06:00 +16°C° 0 mm 1 m/S 621 mmHg 28%
    07:00 +18°C° 0 mm 1 m/S 622 mmHg 28%
    08:00 +20°C° 0 mm 2 m/S 623 mmHg 24%
    09:00 +24°C° 0 mm 3 m/S 624 mmHg 20%
    10:00 +28°C° 0 mm 4 m/S 625 mmHg 16%
    11:00 +29°C° 0 mm 3 m/S 625 mmHg 14%
    12:00 +31°C° 0 mm 3 m/S 624 mmHg 13%
    13:00 +32°C° 0 mm 2 m/S 624 mmHg 11%
    14:00 +32°C° 0 mm 2 m/S 623 mmHg 11%
    15:00 +31°C° 0 mm 2 m/S 623 mmHg 11%
    16:00 +31°C° 0 mm 1 m/S 622 mmHg 11%
    17:00 +29°C° 0 mm 1 m/S 622 mmHg 13%
    18:00 +26°C° 0 mm 2 m/S 621 mmHg 15%
    19:00 +23°C° 0 mm 2 m/S 621 mmHg 17%
    20:00 +23°C° 0 mm 1 m/S 621 mmHg 18%
    21:00 +22°C° 0 mm 1 m/S 621 mmHg 18%
    22:00 +21°C° 0 mm 1 m/S 621 mmHg 19%
    23:00 +20°C° 0 mm 1 m/S 621 mmHg 21%

    24 August, Donnerstag

    Zeit Temperatur Niederschläge Wind Luftdruck Luftfeuchtigkeit
    00:00 +20°C° 0 mm 1 m/S 621 mmHg 22%
    01:00 +19°C° 0 mm 1 m/S 620 mmHg 24%
    02:00 +18°C° 0 mm 1 m/S 620 mmHg 30%
    03:00 +16°C° 0 mm 1 m/S 620 mmHg 36%
    04:00 +15°C° 0 mm 1 m/S 620 mmHg 42%
    05:00 +16°C° 0 mm 1 m/S 620 mmHg 42%
    06:00 +16°C° 0 mm 1 m/S 621 mmHg 42%
    07:00 +18°C° 0 mm 1 m/S 622 mmHg 41%
    08:00 +21°C° 0 mm 1 m/S 623 mmHg 35%
    09:00 +25°C° 0 mm 2 m/S 624 mmHg 28%
    10:00 +29°C° 0 mm 2 m/S 625 mmHg 22%
    11:00 +31°C° 0 mm 1 m/S 625 mmHg 19%
    12:00 +33°C° 0 mm 1 m/S 625 mmHg 16%
    13:00 +36°C° 0 mm 1 m/S 625 mmHg 12%
    14:00 +35°C° 0 mm 1 m/S 624 mmHg 13%
    15:00 +34°C° 0 mm 1 m/S 623 mmHg 13%
    16:00 +33°C° 0 mm 1 m/S 623 mmHg 13%
    17:00 +30°C° 0 mm 1 m/S 622 mmHg 15%
    18:00 +28°C° 0 mm 1 m/S 622 mmHg 17%
    19:00 +26°C° 0 mm 1 m/S 622 mmHg 19%
    20:00 +25°C° 0 mm 1 m/S 622 mmHg 20%
    21:00 +25°C° 0 mm 1 m/S 622 mmHg 22%
    22:00 +24°C° 0 mm 1 m/S 623 mmHg 23%
    23:00 +23°C° 0 mm 2 m/S 622 mmHg 29%

    25 August, Freitag

    Zeit Temperatur Niederschläge Wind Luftdruck Luftfeuchtigkeit
    00:00 +20°C° 0 mm 2 m/S 622 mmHg 35%
    01:00 +19°C° 0 mm 3 m/S 621 mmHg 42%
    02:00 +18°C° 0 mm 3 m/S 621 mmHg 47%
    03:00 +18°C° 0 mm 2 m/S 621 mmHg 53%
    04:00 +17°C° 0 mm 2 m/S 621 mmHg 58%
    05:00 +17°C° 0 mm 2 m/S 621 mmHg 58%
    06:00 +17°C° 0 mm 3 m/S 622 mmHg 59%
    07:00 +17°C° 0 mm 3 m/S 622 mmHg 59%
    08:00 +21°C° 0 mm 3 m/S 623 mmHg 48%
    09:00 +25°C° 0 mm 3 m/S 624 mmHg 36%
    10:00 +28°C° 0 mm 3 m/S 625 mmHg 25%
    11:00 +30°C° 0 mm 2 m/S 625 mmHg 21%
    12:00 +34°C° 0 mm 2 m/S 625 mmHg 17%
    13:00 +35°C° 0 mm 1 m/S 625 mmHg 12%
    14:00 +34°C° 0 mm 1 m/S 624 mmHg 12%
    15:00 +34°C° 0 mm 1 m/S 623 mmHg 12%
    16:00 +33°C° 0 mm 1 m/S 623 mmHg 12%
    17:00 +30°C° 0 mm 1 m/S 622 mmHg 15%
    18:00 +28°C° 0 mm 1 m/S 622 mmHg 17%
    19:00 +25°C° 0 mm 1 m/S 622 mmHg 19%
    20:00 +24°C° 0 mm 1 m/S 622 mmHg 20%
    21:00 +24°C° 0 mm 1 m/S 622 mmHg 21%
    22:00 +23°C° 0 mm 1 m/S 622 mmHg 22%
    23:00 +22°C° 0 mm 1 m/S 622 mmHg 25%
    Mehr zeigen